Location: Unspecified
(47.5840°N, 122.3000°W)
Time: 23:34:42
(UTC+00:00)

Cosmos 1300 - Pass Details

Date: 04 August 2024
Orbit: 454 x 455 km, 82.5° (Epoch: 16 September)

Event Time Altitude Azimuth Distance (km) Brightness Sun altitude
Rises 10:34:44 0° 128° (SE) 2,492 6.1 -18.2°
Enters shadow 11:36:05 -69° 192° (SSW) 12,377 9.6 -11.3°
Maximum altitude 12:12:41 77° 280° (W) 486 2.5 -6.5°
